Williams Field, Antarctic, New Zealand
  Lat: 77.88S, Lon: 166.65E
ICAO Used: NZWD
Past Weather Observations for Saturday, January 31, 2015

NOTE: This archive is for the closest National Weather Service station to Williams Field, Antarctic. Information may differ from the station used for current weather conditions.

Click here for Long-term Archive

Time Weather Temperature Dewpoint Humidity Pressure Winds Precip Visibility
23:55
Mostly Cloudy
Blowing
23°F / -5°C 14°F / -10°C 68% 29.06 in
(984 mb)
S 17.3 mph
(S 28 kph)
- 10km
22:55
Mostly Cloudy
23°F / -5°C 10°F / -12°C 58% 29.03 in
(983 mb)
S 21.9 mph
(S 35 kph)
- 10km
21:55
Mostly Cloudy
21°F / -6°C 10°F / -12°C 63% 29.06 in
(984 mb)
SSE 9.2 mph
(SSE 15 kph)
- 10km
20:55
Mostly Cloudy
21°F / -6°C 9°F / -13°C 58% 29.03 in
(983 mb)
NNE 4.6 mph
(NNE 7 kph)
- 10km
19:55
Mostly Cloudy
18°F / -8°C 9°F / -13°C 68% 29.03 in
(983 mb)
NNE 5.8 mph
(NNE 9 kph)
- 10km
18:55
Partly Cloudy
19°F / -7°C 5°F / -15°C 53% 29.03 in
(983 mb)
N 4.6 mph
(N 7 kph)
- 10km
17:55
Partly Cloudy
12°F / -11°C 1°F / -17°C 62% 29.03 in
(983 mb)
N 8.1 mph
(N 13 kph)
- 10km
16:55
Partly Cloudy
16°F / -9°C 3°F / -16°C 57% 29.03 in
(983 mb)
E 6.9 mph
(E 11 kph)
- 10km
15:55
Partly Cloudy
18°F / -8°C 5°F / -15°C 58% 29.03 in
(983 mb)
ENE 4.6 mph
(ENE 7 kph)
- 10km
14:55
Mostly Cloudy
18°F / -8°C 5°F / -15°C 58% 29.03 in
(983 mb)
NE 4.6 mph
(NE 7 kph)
- 10km
13:55
Mostly Cloudy
18°F / -8°C 7°F / -14°C 62% 29.03 in
(983 mb)
Calm - 10km
12:55
Mostly Cloudy
18°F / -8°C 9°F / -13°C 68% 29.03 in
(983 mb)
N 6.9 mph
(N 11 kph)
- 10km
11:55
Mostly Cloudy
19°F / -7°C 7°F / -14°C 58% 29.03 in
(983 mb)
ENE 8.1 mph
(ENE 13 kph)
- 10km
10:55
Mostly Cloudy
23°F / -5°C 7°F / -14°C 50% 29.03 in
(983 mb)
SE 10.4 mph
(SE 17 kph)
- 10km
09:55
Mostly Cloudy
23°F / -5°C 10°F / -12°C 58% 29.03 in
(983 mb)
SE 10.4 mph
(SE 17 kph)
- 10km
08:55
Mostly Cloudy
23°F / -5°C 10°F / -12°C 58% 29.03 in
(983 mb)
SE 16.1 mph
(SE 26 kph)
- 10km
07:55
Mostly Cloudy
25°F / -4°C 10°F / -12°C 54% 29.03 in
(983 mb)
SE 6.9 mph
(SE 11 kph)
- 10km
06:55
Mostly Cloudy
25°F / -4°C 12°F / -11°C 59% 29.03 in
(983 mb)
SSE 8.1 mph
(SSE 13 kph)
- 10km
05:55
Mostly Cloudy
27°F / -3°C 14°F / -10°C 59% 29.03 in
(983 mb)
SSE 10.4 mph
(SSE 17 kph)
- 10km
04:55
Mostly Cloudy
27°F / -3°C 12°F / -11°C 54% 29.03 in
(983 mb)
S 13.8 mph
(S 22 kph)
- 10km
03:55
Mostly Cloudy
25°F / -4°C 12°F / -11°C 59% 29.03 in
(983 mb)
SW 6.9 mph
(SW 11 kph)
- 10km
02:55
Mostly Cloudy
27°F / -3°C 12°F / -11°C 54% 29.06 in
(984 mb)
S 9.2 mph
(S 15 kph)
- 10km
01:55
Mostly Cloudy
28°F / -2°C 9°F / -13°C 43% 29.06 in
(984 mb)
Calm - 10km
01:25
Partly Cloudy
27°F / -3°C 10°F / -12°C 50% 29.06 in
(984 mb)
N 6.9 mph
(N 11 kph)
- 10km
00:55
Partly Cloudy
25°F / -4°C 14°F / -10°C 63% 29.09 in
(985 mb)
NE 3.5 mph
(NE 6 kph)
- 10km
00:25
Partly Cloudy
23°F / -5°C 14°F / -10°C 68% 29.09 in
(985 mb)
SSE 6.9 mph
(SSE 11 kph)
- 10km
Time Weather Temperature Dewpoint Humidity Pressure Winds Precip Visibility


Weather for websites

WeatherForYou.com, LLC is not responsible for any damages or problems caused by this service. Current weather conditions are obtained from the closest station including government and personal stations which may have varying degrees of accuracy. Weather forecasts are derived from the NOAA NDFD. Like all things, this site belongs to Jesus Christ... He just trusts me to maintain it. If you have any questions or comments email webmaster@weatherforyou.com

Copyright © 2015, WeatherForYou.com LLC. All rights reserved.